YAMAL 202               
1 28089U 03053A   19258.92232872 -.00000359  00000-0  00000-0 0  9996
2 28089   0.2005  97.9086 0005141  57.4234 275.0886  1.00569637 57950
YAMAL 201               
1 28094U 03053B   19258.69800475  .00000047  00000-0  00000-0 0  9999
2 28094   3.9962  75.6890 0003199   3.8281 224.7201  1.00285833 60142
SL-12 R/B(2)            
1 28119U 03053E   19258.61495616 -.00000079  00000-0  00000-0 0  9992
2 28119  11.6248  30.8763 0226766 242.5991 306.4145  1.00056076 60041